User: anonymous   Login
Location: Santa Maria di Sala
(45.5070°N, 12.0300°E)
Time: 15:15:42
(UTC+01:00)
Language:

AO-109 - Orbit

View from above orbital plane
View from above orbital plane
View from above satellite
View from above satellite

Ground track
Ground track

The orbit data is extracted from the following two-line orbital elements,

1 47311U 21002C   24053.59977520  .00144591  00000-0  11673-2 0  9993
2 47311  60.6702 159.5942 0024873  66.7591 293.6133 15.69689243173104
Epoch (UTC): 22 February 2024 14:23:40
Eccentricity: 0.0024873
inclination: 60.6702°
perigee height: 343 km
apogee height: 376 km
right ascension of ascending node: 159.5942°
argument of perigee: 66.7591°
revolutions per day: 15.69689243
mean anomaly at epoch: 293.6133°
orbit number at epoch: 17310

The dashed part of the orbit path shows where the satellite is in the earth's shadow,  

DLR